DEUNG LHDC-LOWW

Flight info

Callsign DEUNG
Flight time N/A
Altitude 26000
Route NARKA DCT UVERA DCT MNR DCT TORNO DCT BODZA DCT NATEX NATEX2W
Aircraft PC12/L-SDFGRWY/S

Departure

Time N/A
Airport Debrecen International Airport (LHDC)

Arrival

Time 2026-04-25 21:08
Airport Vienna International Airport (LOWW)
Time Latitude Longitude Altitude Speed Heading
2026-04-25 20:07 47.34442 21.13460 15525 ft 170 kts 258°
2026-04-25 20:07 47.34106 21.11793 16002 ft 169 kts 258°
2026-04-25 20:08 47.33771 21.10134 16488 ft 168 kts 258°
2026-04-25 20:08 47.33438 21.08483 16951 ft 169 kts 258°
2026-04-25 20:08 47.33103 21.06816 17369 ft 171 kts 258°
2026-04-25 20:08 47.32764 21.05130 17794 ft 172 kts 258°
2026-04-25 20:09 47.32422 21.03439 18222 ft 173 kts 258°
2026-04-25 20:09 47.32079 21.01742 18597 ft 173 kts 258°
2026-04-25 20:09 47.31734 21.00040 18971 ft 173 kts 258°
2026-04-25 20:09 47.31390 20.98342 19345 ft 173 kts 258°
2026-04-25 20:10 47.31046 20.96648 19738 ft 172 kts 258°
2026-04-25 20:10 47.30703 20.94961 20133 ft 172 kts 258°
2026-04-25 20:10 47.30361 20.93277 20530 ft 171 kts 258°
2026-04-25 20:10 47.30019 20.91598 20932 ft 171 kts 258°
2026-04-25 20:11 47.29678 20.89927 21334 ft 170 kts 258°
2026-04-25 20:11 47.29338 20.88262 21748 ft 169 kts 258°
2026-04-25 20:11 47.29001 20.86608 22169 ft 168 kts 258°
2026-04-25 20:11 47.28663 20.84958 22592 ft 168 kts 258°
2026-04-25 20:12 47.28328 20.83318 23025 ft 167 kts 258°
2026-04-25 20:12 47.27994 20.81686 23462 ft 166 kts 258°
2026-04-25 20:12 47.27661 20.80063 23840 ft 165 kts 258°
2026-04-25 20:12 47.27554 20.79538 23957 ft 165 kts 258°
2026-04-25 20:13 47.27001 20.76825 24484 ft 169 kts 258°
2026-04-25 20:13 47.26662 20.75162 24721 ft 175 kts 258°
2026-04-25 20:13 47.26306 20.73425 24966 ft 180 kts 258°
2026-04-25 20:13 47.25937 20.71640 25210 ft 185 kts 258°
2026-04-25 20:14 47.25561 20.69807 25454 ft 189 kts 258°
2026-04-25 20:14 47.25178 20.67944 25699 ft 192 kts 258°
2026-04-25 20:14 47.24786 20.66036 25922 ft 197 kts 258°
2026-04-25 20:14 47.24377 20.64043 25927 ft 209 kts 258°
2026-04-25 20:15 47.23945 20.61944 25934 ft 219 kts 257°
2026-04-25 20:15 47.23493 20.59767 25935 ft 226 kts 257°
2026-04-25 20:15 47.23034 20.57553 25934 ft 224 kts 257°
2026-04-25 20:15 47.22585 20.55400 25929 ft 217 kts 257°
2026-04-25 20:16 47.22149 20.53306 25928 ft 212 kts 257°
2026-04-25 20:16 47.21720 20.51242 25924 ft 212 kts 257°
2026-04-25 20:16 47.21287 20.49150 25924 ft 214 kts 257°
2026-04-25 20:16 47.20850 20.47047 25932 ft 217 kts 257°
2026-04-25 20:17 47.20406 20.44917 25929 ft 218 kts 257°
2026-04-25 20:17 47.20088 20.42756 25931 ft 215 kts 271°
2026-04-25 20:17 47.20305 20.40596 25939 ft 214 kts 281°
2026-04-25 20:17 47.20610 20.38443 25942 ft 215 kts 281°
2026-04-25 20:18 47.20911 20.36280 25941 ft 216 kts 281°
2026-04-25 20:18 47.21205 20.34109 25940 ft 217 kts 281°
2026-04-25 20:18 47.21499 20.31933 25942 ft 217 kts 281°
2026-04-25 20:18 47.21793 20.29755 25941 ft 217 kts 281°
2026-04-25 20:19 47.22088 20.27576 25941 ft 217 kts 281°
2026-04-25 20:19 47.22378 20.25422 25941 ft 218 kts 281°
2026-04-25 20:19 47.22676 20.23210 25940 ft 218 kts 281°
2026-04-25 20:19 47.22969 20.21027 25940 ft 218 kts 281°
2026-04-25 20:20 47.23259 20.18864 25940 ft 218 kts 281°
2026-04-25 20:20 47.23552 20.16680 25938 ft 218 kts 281°
2026-04-25 20:20 47.23844 20.14496 25938 ft 218 kts 281°
2026-04-25 20:20 47.24136 20.12312 25937 ft 217 kts 281°
2026-04-25 20:21 47.24427 20.10128 25939 ft 217 kts 281°
2026-04-25 20:21 47.24718 20.07938 25938 ft 218 kts 281°
2026-04-25 20:21 47.25009 20.05751 25939 ft 218 kts 281°
2026-04-25 20:21 47.25299 20.03565 25937 ft 218 kts 281°
2026-04-25 20:22 47.25589 20.01378 25937 ft 218 kts 281°
2026-04-25 20:22 47.25684 20.00665 25938 ft 218 kts 281°
2026-04-25 20:22 47.26165 19.97023 25940 ft 218 kts 281°
2026-04-25 20:22 47.26454 19.94831 25938 ft 218 kts 280°
2026-04-25 20:23 47.26744 19.92634 25939 ft 218 kts 280°
2026-04-25 20:23 47.27031 19.90444 25938 ft 218 kts 281°
2026-04-25 20:23 47.27316 19.88278 25940 ft 218 kts 281°
2026-04-25 20:23 47.27603 19.86085 25939 ft 218 kts 280°
2026-04-25 20:24 47.27890 19.83892 25939 ft 218 kts 280°
2026-04-25 20:24 47.28177 19.81703 25937 ft 218 kts 280°
2026-04-25 20:24 47.28462 19.79514 25940 ft 218 kts 280°
2026-04-25 20:24 47.28748 19.77319 25941 ft 218 kts 280°
2026-04-25 20:25 47.29034 19.75124 25939 ft 218 kts 280°
2026-04-25 20:25 47.29318 19.72931 25943 ft 218 kts 280°
2026-04-25 20:25 47.29507 19.71474 25945 ft 218 kts 280°
2026-04-25 20:25 47.29883 19.68570 25946 ft 218 kts 280°
2026-04-25 20:26 47.30167 19.66381 25946 ft 218 kts 280°
2026-04-25 20:26 47.30449 19.64192 25949 ft 218 kts 280°
2026-04-25 20:26 47.30732 19.61995 25950 ft 218 kts 280°
2026-04-25 20:26 47.30922 19.60515 25952 ft 218 kts 280°
2026-04-25 20:27 47.31187 19.58456 25955 ft 219 kts 280°
2026-04-25 20:27 47.31470 19.56243 25955 ft 221 kts 280°
2026-04-25 20:27 47.31757 19.54011 25957 ft 222 kts 280°
2026-04-25 20:27 47.32044 19.51765 25960 ft 223 kts 280°
2026-04-25 20:28 47.32332 19.49511 25960 ft 224 kts 280°
2026-04-25 20:28 47.32621 19.47251 25961 ft 224 kts 280°
2026-04-25 20:28 47.32909 19.44986 25962 ft 225 kts 280°
2026-04-25 20:28 47.33197 19.42717 25964 ft 225 kts 280°
2026-04-25 20:29 47.33501 19.40446 25968 ft 224 kts 284°
2026-04-25 20:29 47.33991 19.38267 25968 ft 224 kts 287°
2026-04-25 20:29 47.34476 19.36159 25967 ft 225 kts 287°
2026-04-25 20:29 47.34975 19.33970 25970 ft 225 kts 287°
2026-04-25 20:30 47.35475 19.31776 25970 ft 226 kts 287°
2026-04-25 20:30 47.35976 19.29575 25971 ft 226 kts 287°
2026-04-25 20:30 47.36477 19.27376 25970 ft 226 kts 287°
2026-04-25 20:30 47.36977 19.25176 25974 ft 226 kts 287°
2026-04-25 20:31 47.37478 19.22972 25973 ft 226 kts 287°
2026-04-25 20:31 47.37978 19.20766 25973 ft 226 kts 287°
2026-04-25 20:31 47.38471 19.18592 25972 ft 226 kts 287°
2026-04-25 20:31 47.38970 19.16390 25972 ft 226 kts 287°
2026-04-25 20:32 47.39469 19.14183 25972 ft 227 kts 287°
2026-04-25 20:32 47.39967 19.11977 25972 ft 226 kts 287°
2026-04-25 20:32 47.40464 19.09776 25972 ft 227 kts 287°
2026-04-25 20:32 47.40963 19.07565 25971 ft 227 kts 287°
2026-04-25 20:33 47.41461 19.05354 25972 ft 226 kts 287°
2026-04-25 20:33 47.41957 19.03148 25971 ft 226 kts 287°
2026-04-25 20:33 47.42453 19.00941 25970 ft 226 kts 287°
2026-04-25 20:33 47.42782 18.99479 25970 ft 226 kts 287°
2026-04-25 20:34 47.43443 18.96529 25971 ft 226 kts 287°
2026-04-25 20:34 47.43938 18.94321 25970 ft 227 kts 287°
2026-04-25 20:34 47.44433 18.92111 25967 ft 226 kts 287°
2026-04-25 20:34 47.44926 18.89906 25966 ft 226 kts 287°
2026-04-25 20:35 47.45421 18.87690 25963 ft 226 kts 287°
2026-04-25 20:35 47.45913 18.85485 25965 ft 226 kts 287°
2026-04-25 20:35 47.46405 18.83279 25964 ft 226 kts 287°
2026-04-25 20:35 47.46896 18.81077 25964 ft 226 kts 287°
2026-04-25 20:36 47.47380 18.78898 25964 ft 226 kts 287°
2026-04-25 20:36 47.47871 18.76692 25962 ft 226 kts 287°
2026-04-25 20:36 47.48361 18.74483 25962 ft 226 kts 287°
2026-04-25 20:36 47.48850 18.72276 25961 ft 226 kts 287°
2026-04-25 20:37 47.49339 18.70068 25961 ft 226 kts 287°
2026-04-25 20:37 47.49829 18.67855 25963 ft 226 kts 287°
2026-04-25 20:37 47.50319 18.65640 25961 ft 226 kts 287°
2026-04-25 20:37 47.50807 18.63431 25963 ft 226 kts 287°
2026-04-25 20:38 47.51295 18.61218 25962 ft 226 kts 287°
2026-04-25 20:38 47.51780 18.59014 25966 ft 226 kts 287°
2026-04-25 20:38 47.52268 18.56800 25962 ft 226 kts 287°
2026-04-25 20:38 47.52747 18.54621 25966 ft 226 kts 287°
2026-04-25 20:39 47.53232 18.52414 25961 ft 226 kts 287°
2026-04-25 20:39 47.53717 18.50204 25965 ft 226 kts 287°
2026-04-25 20:39 47.54283 18.48049 25962 ft 225 kts 294°
2026-04-25 20:39 47.54745 18.46643 25966 ft 225 kts 294°
2026-04-25 20:40 47.55644 18.43869 25967 ft 226 kts 294°
2026-04-25 20:40 47.56192 18.41714 25966 ft 223 kts 285°
2026-04-25 20:40 47.56637 18.39505 25967 ft 224 kts 286°
2026-04-25 20:40 47.57095 18.37297 25966 ft 225 kts 286°
2026-04-25 20:41 47.57555 18.35082 25970 ft 225 kts 286°
2026-04-25 20:41 47.57877 18.32828 25966 ft 225 kts 278°
2026-04-25 20:41 47.58071 18.30530 25967 ft 225 kts 278°
2026-04-25 20:41 47.58306 18.28239 25969 ft 225 kts 280°
2026-04-25 20:42 47.58575 18.25957 25968 ft 225 kts 280°
2026-04-25 20:42 47.58839 18.23668 25970 ft 226 kts 280°
2026-04-25 20:42 47.59096 18.21375 25972 ft 226 kts 279°
2026-04-25 20:42 47.59351 18.19076 25969 ft 226 kts 279°
2026-04-25 20:43 47.59608 18.16781 25967 ft 226 kts 279°
2026-04-25 20:43 47.59868 18.14459 25771 ft 231 kts 279°
2026-04-25 20:43 47.60132 18.12091 25476 ft 234 kts 279°
2026-04-25 20:43 47.60397 18.09699 25184 ft 236 kts 279°
2026-04-25 20:44 47.60664 18.07299 24895 ft 237 kts 279°
2026-04-25 20:44 47.60931 18.04887 24608 ft 238 kts 279°
2026-04-25 20:44 47.61199 18.02468 24322 ft 238 kts 279°
2026-04-25 20:44 47.61508 18.00061 24040 ft 237 kts 288°
2026-04-25 20:45 47.62251 17.97922 23772 ft 238 kts 297°
2026-04-25 20:45 47.63077 17.95774 23472 ft 242 kts 296°
2026-04-25 20:45 47.63879 17.93557 23061 ft 246 kts 295°
2026-04-25 20:45 47.64673 17.91295 22656 ft 249 kts 295°
2026-04-25 20:46 47.65482 17.89011 22256 ft 251 kts 296°
2026-04-25 20:46 47.66299 17.86721 21862 ft 251 kts 296°
2026-04-25 20:46 47.67117 17.84427 21465 ft 252 kts 296°
2026-04-25 20:46 47.67933 17.82129 21084 ft 251 kts 296°
2026-04-25 20:47 47.68747 17.79832 20705 ft 251 kts 296°
2026-04-25 20:47 47.69560 17.77538 20332 ft 250 kts 296°
2026-04-25 20:47 47.70370 17.75252 19962 ft 250 kts 296°
2026-04-25 20:47 47.71179 17.72967 19597 ft 249 kts 296°
2026-04-25 20:48 47.71980 17.70701 19236 ft 248 kts 296°
2026-04-25 20:48 47.72782 17.68429 18878 ft 249 kts 296°
2026-04-25 20:48 47.73592 17.66127 18527 ft 254 kts 297°
2026-04-25 20:48 47.74407 17.63819 18170 ft 256 kts 297°
2026-04-25 20:49 47.75241 17.61457 17768 ft 258 kts 297°
2026-04-25 20:49 47.76075 17.59089 17325 ft 260 kts 297°
2026-04-25 20:49 47.76912 17.56708 16880 ft 261 kts 297°
2026-04-25 20:49 47.77754 17.54314 16462 ft 260 kts 297°
2026-04-25 20:50 47.78587 17.51942 16157 ft 257 kts 297°
2026-04-25 20:50 47.79406 17.49604 15853 ft 253 kts 297°
2026-04-25 20:50 47.80217 17.47290 15548 ft 251 kts 297°
2026-04-25 20:50 47.81020 17.44995 15257 ft 249 kts 297°
2026-04-25 20:51 47.81818 17.42712 14963 ft 248 kts 297°
2026-04-25 20:51 47.82605 17.40461 14674 ft 247 kts 297°
2026-04-25 20:51 47.83395 17.38198 14385 ft 246 kts 297°
2026-04-25 20:51 47.84182 17.35941 14098 ft 245 kts 297°
2026-04-25 20:52 47.84967 17.33690 13814 ft 244 kts 296°
2026-04-25 20:52 47.85496 17.32173 13605 ft 244 kts 296°
2026-04-25 20:52 47.86526 17.29211 13184 ft 244 kts 296°
2026-04-25 20:52 47.87307 17.26964 12868 ft 244 kts 296°
2026-04-25 20:53 47.88086 17.24721 12554 ft 243 kts 296°
2026-04-25 20:53 47.88865 17.22477 12243 ft 243 kts 296°
2026-04-25 20:53 47.89643 17.20235 11940 ft 243 kts 296°
2026-04-25 20:53 47.90421 17.17990 11604 ft 245 kts 296°
2026-04-25 20:54 47.91199 17.15744 11258 ft 245 kts 296°
2026-04-25 20:54 47.91986 17.13467 10910 ft 246 kts 296°
2026-04-25 20:54 47.92765 17.11213 10568 ft 246 kts 296°
2026-04-25 20:54 47.93552 17.08936 10252 ft 246 kts 296°
2026-04-25 20:55 47.94333 17.06671 9962 ft 245 kts 296°
2026-04-25 20:55 47.95102 17.04439 9661 ft 245 kts 296°
2026-04-25 20:55 47.95879 17.02181 9346 ft 244 kts 297°
2026-04-25 20:55 47.96657 16.99920 9027 ft 244 kts 297°
2026-04-25 20:56 47.97432 16.97666 8719 ft 244 kts 297°
2026-04-25 20:56 47.98208 16.95408 8408 ft 244 kts 297°
2026-04-25 20:56 47.98982 16.93152 8104 ft 244 kts 297°
2026-04-25 20:56 47.99756 16.90893 7812 ft 244 kts 297°
2026-04-25 20:57 48.00640 16.88754 7458 ft 244 kts 312°
2026-04-25 20:57 48.02123 16.87486 6889 ft 250 kts 343°
2026-04-25 20:57 48.03825 16.87606 6276 ft 245 kts 13°
2026-04-25 20:57 48.05227 16.88969 5633 ft 244 kts 45°
2026-04-25 20:58 48.05893 16.91248 5004 ft 241 kts 79°
2026-04-25 20:58 48.05601 16.93662 4355 ft 239 kts 115°
2026-04-25 20:58 48.04470 16.95394 3723 ft 232 kts 153°
2026-04-25 20:58 48.02945 16.95824 3106 ft 221 kts 192°
2026-04-25 20:59 48.01663 16.94976 2969 ft 184 kts 219°
2026-04-25 20:59 48.00677 16.94009 2958 ft 160 kts 221°
2026-04-25 20:59 47.99794 16.93139 2956 ft 143 kts 230°
2026-04-25 20:59 47.99488 16.91968 2988 ft 114 kts 289°
2026-04-25 21:00 47.99851 16.91014 2986 ft 104 kts 302°
2026-04-25 21:00 47.99977 16.90698 2982 ft 106 kts 303°
2026-04-25 21:00 48.01011 16.87902 2984 ft 133 kts 299°
2026-04-25 21:01 48.01444 16.86631 2981 ft 140 kts 299°
2026-04-25 21:01 48.01882 16.85313 2985 ft 143 kts 298°
2026-04-25 21:01 48.02314 16.83970 2985 ft 144 kts 298°
2026-04-25 21:01 48.02752 16.82624 2992 ft 144 kts 298°
2026-04-25 21:02 48.03186 16.81285 2989 ft 140 kts 298°
2026-04-25 21:02 48.03605 16.80010 2990 ft 136 kts 298°
2026-04-25 21:02 48.04013 16.78752 2987 ft 133 kts 298°
2026-04-25 21:02 48.04419 16.77514 2987 ft 132 kts 298°
2026-04-25 21:03 48.04818 16.76290 2984 ft 131 kts 299°
2026-04-25 21:03 48.05215 16.75072 2988 ft 130 kts 299°
2026-04-25 21:03 48.05611 16.73855 2962 ft 132 kts 298°
2026-04-25 21:03 48.06027 16.72582 2799 ft 140 kts 298°
2026-04-25 21:04 48.06464 16.71242 2605 ft 144 kts 298°
2026-04-25 21:04 48.06886 16.69939 2422 ft 135 kts 298°
2026-04-25 21:04 48.07283 16.68715 2246 ft 127 kts 298°
2026-04-25 21:04 48.07625 16.67540 2088 ft 119 kts 297°
2026-04-25 21:05 48.07961 16.66448 1970 ft 113 kts 299°
2026-04-25 21:05 48.08320 16.65417 1854 ft 110 kts 300°
2026-04-25 21:05 48.08671 16.64405 1724 ft 111 kts 298°
2026-04-25 21:05 48.09003 16.63359 1541 ft 111 kts 295°
2026-04-25 21:06 48.09338 16.62306 1374 ft 113 kts 297°
2026-04-25 21:06 48.09704 16.61234 1213 ft 118 kts 295°
2026-04-25 21:06 48.10061 16.60130 1090 ft 117 kts 294°
2026-04-25 21:06 48.10177 16.59777 1055 ft 116 kts 295°
2026-04-25 21:07 48.10738 16.58064 745 ft 101 kts 295°
2026-04-25 21:07 48.11037 16.57157 616 ft 90 kts 295°
2026-04-25 21:07 48.11285 16.56389 608 ft 74 kts 296°
2026-04-25 21:07 48.11491 16.55763 614 ft 58 kts 296°
2026-04-25 21:08 48.11571 16.55519 609 ft 14 kts 299°
2026-04-25 21:08 48.11654 16.55354 607 ft 23 kts 316°
2026-04-25 21:08 48.11771 16.55187 614 ft 24 kts 316°
2026-04-25 21:08 48.11895 16.55139 614 ft 17 kts 333°
2026-04-25 21:09 48.12020 16.54784 607 ft 21 kts 296°
2026-04-25 21:09 48.12087 16.54582 609 ft 22 kts 295°
2026-04-25 21:09 48.12156 16.54366 609 ft 24 kts 295°
2026-04-25 21:10 48.12229 16.54142 617 ft 25 kts 297°
2026-04-25 21:10 48.12329 16.53837 613 ft 31 kts 296°
2026-04-25 21:10 48.12389 16.53654 610 ft 8 kts 296°
2026-04-25 21:10 48.12459 16.53639 606 ft 16 kts 353°
2026-04-25 21:11 48.12533 16.53645 606 ft 13 kts 26°
2026-04-25 21:11 48.12565 16.53636 606 ft 5 kts 302°
2026-04-25 21:11 48.12580 16.53591 606 ft 0 kts 296°